Regional Weather Roundup
Issued by NWS Grand Forks, ND

Home | Current Version | Previous Version | Graphics & Text | Print | Product List | Glossary On
Versions: 1 2 3 4 5 6 7 8 9 10 11 12 13 14 15 16 17 18 19 20 21 22 23 24 25 26 27 28 29 30 31 32 33 34 35 36 37 38 39 40 41 42 43 44 45 46 47 48 49 50
832
ASUS43 KFGF 100331
RWRFGF
PRAIRIE TO PINES  WEATHER ROUNDUP
NATIONAL WEATHER SERVICE EASTERN NORTH DAKOTA/GRAND FORKS ND
900 PM CST TUE FEB 09 2016

 **SATELLITE DATA USED TO AUGMENT SKY COVER AT AUTOMATED STATIONS**
 *****  WEATHER ACROSS EASTERN NORTH DAKOTA  *****

CITY           SKY/WX    TMP DP  RH WIND       PRES   REMARKS
GRAND FORKS    CLOUDY     4  -3  73 N9        30.25F WCI -10
GRAND FRKS AFB CLOUDY     3  -2  79 NE6       30.23F WCI  -8
DEVILS LAKE    CLOUDY    10   4  76 E8        30.17F WCI  -2
FARGO          CLOUDY     8   2  76 NE10      30.24R WCI  -6
WAHPETON ARPT  CLOUDY    12   3  67 N8        30.22S WCI   1
$$

 ***** WEATHER ACROSS CENTRAL AND WESTERN NORTH DAKOTA  *****

CITY           SKY/WX    TMP DP  RH WIND       PRES   REMARKS
BISMARCK       CLOUDY    35  22  58 NE3       30.08F
MINOT          LGT SNOW  23  14  68 E13       30.06F WCI  11
JAMESTOWN      CLOUDY    14   8  77 E9        30.15R WCI   2
MINOT AFB      LGT SNOW  19  18  93 SE15      30.06F FOG     WCI   5
GARRISON         N/A     29  21  72 E9        30.04F WCI  20
WILLISTON      PTCLDY    30  24  78 SW3       30.00F
DICKINSON      PTCLDY    26  20  77 S5        30.00F WCI  20
HETTINGER      CLEAR     27  20  75 SE3       30.04F
$$

 *****  OTHER AIRPORT OBSERVATIONS IN OUR AREA  *****

CITY           SKY/WX    TMP DP  RH WIND       PRES   REMARKS
WALHALLA       FAIR       3   0  85 NE6       30.25R WCI  -8
GRAFTON AIRPOR FAIR       3  -2  78 N9        30.26F WCI -11
VALLEY CITY AR CLOUDY    10   5  79 E8        30.19F WCI  -1
CANDO          CLOUDY     9   5  85 E8        30.18F WCI  -4
CAVALIER APRT  FAIR       3   0  85 NE7       30.26R WCI  -9
GWINNER        CLOUDY    16  10  79 NE9       30.18F WCI   4
SHEYENNE NWR     N/A     11   2  67 NE7       29.95  WCI   0
ROLLA          CLOUDY     9   3  78 E9        30.14S WCI  -5
 ***** THE ABOVE OBSERVATIONS ARE NON NWS ARE NOT QUALITY
       CONTROLLED AND MAY MIS-REPORT RAIN FOR SNOW...
$$

  *****  WEATHER ACROSS NORTHERN MINNESOTA  *****

CITY           SKY/WX    TMP DP  RH WIND       PRES   REMARKS
FLAG ISLAND    CLOUDY    -6  -9  84 NW12      30.19F WCI -24
WARROAD        CLOUDY    -2  -9  71 NW7       30.21F WCI -16
ROSEAU         PTCLDY    -4  -9  77 NW5       30.21F WCI -15
HALLOCK        CLOUDY     0  -6  78 N8        30.24F WCI -15
THF RVR FALLS  CLOUDY     0  -6  78 N6        30.20F WCI -12
BAUDETTE       CLOUDY    -2 -11  65 N6        30.17S WCI -14
WASKISH        CLOUDY    -4  -8  84 NW3       30.17S
CROOKSTON      CLOUDY     1  -2  85 N7        30.24F WCI -11
STEPHEN NDAWN    N/A      0  -4  85 N5          N/A  WCI -10
GREENBUSH NDAW   N/A     -8 -11  84 N5          N/A  WCI -19
$$
  *****  WEATHER ACROSS CENTRAL AND WEST MINNESOTA  *****

CITY           SKY/WX    TMP DP  RH WIND       PRES   REMARKS
FOSSTON          N/A     -9 -13  84 CALM      30.19F
BEMIDJI        CLOUDY    -5  -8  84 W6        30.16R WCI -17
PARK RAPIDS    CLOUDY    -5 -11  75 NW8       30.14R WCI -20
ELBOW LAKE     CLOUDY     9   2  73 N7        30.19R WCI  -3
WADENA         CLOUDY     0  -4  85 NW6       30.15S WCI -12
DETROIT LAKES  FLURRIES   1   0  92 NW6       30.19R WCI -10
MOORHEAD       CLOUDY     5   0  78 N9        30.23F WCI  -9
FERGUS FALLS   CLOUDY     5   1  85 N8        30.24R WCI  -8
MORRIS MN      CLOUDY    12   7  79 N9        30.17S WCI   0
STAPLES        CLOUDY     0  -6  78 NW7       30.16R WCI -13
$$
  *****  WEATHER ELSEWHERE ACROSS MINNESOTA  *****

CITY           SKY/WX    TMP DP  RH WIND       PRES   REMARKS
DULUTH         CLEAR      1  -8  66 N14G22    30.05S WCI -17
INTRNTL FALLS  CLOUDY    -6 -10  83 N7        30.16R WCI -20
ELY            CLOUDY     0  -6  78 N7        30.07S WCI -13
CLOQUET        CLEAR      3  -8  60 NW12G17   30.08R WCI -13
WHEATON        CLOUDY    12   7  79 NW7       30.23R WCI   2
BRAINERD       CLOUDY     2  -7  66 N9        30.14S WCI -13
HIBBING        CLOUDY    -3  -9  75 NW8       30.09S WCI -18
ALEXANDRIA     CLOUDY     5  -1  76 N7        30.15S WCI  -7
SAINT CLOUD    CLEAR      7  -1  70 NW6       30.13F WCI  -3
MINNEAPOLIS    PTCLDY    12  -2  53 N12       30.14F WCI  -2
$$

  *****  WEATHER ACROSS SOUTH DAKOTA  *****

CITY           SKY/WX    TMP DP  RH WIND       PRES   REMARKS
SIOUX FALLS    CLOUDY    22  14  71 E5        30.16F WCI  16
BROOKINGS      CLOUDY    20  12  71 NE5       30.13F WCI  13
WATERTOWN      CLOUDY    19   9  65 NE5       30.11F WCI  12
HURON          CLOUDY    26  17  68 S8        30.13F WCI  18
SISSETON         N/A     14   6  70 NE8       30.19S WCI   3
ABERDEEN       CLOUDY    23  14  68 NE10      30.14F WCI  12
MITCHELL       CLOUDY    28  17  63 S5        30.16F WCI  23
PIERRE         CLOUDY    31  23  72 SE3       30.09F
MOBRIDGE       CLOUDY    33  22  63 SE6       30.05F
RAPID CITY     CLEAR     28  24  85 CALM      30.08F
$$

  *****  SOME WEATHER IN NEARBY STATES *****

CITY           SKY/WX    TMP DP  RH WIND       PRES   REMARKS
GLASGOW MT     PTCLDY    39  31  72 SW3       29.99F
GREAT FALLS MT PTCLDY    47  21  35 S14       30.11F
CHEYENNE WY    CLEAR     41  18  39 W13       30.26F
SCOTTSBLUFF NE CLEAR     38  28  67 NW10      30.19S
OMAHA NE       CLOUDY    24  15  68 W7        30.25F WCI  16
DES MOINES IA  CLEAR     16   7  67 NW9       30.18S WCI   4
DAVENPORT IA   CLEAR     12   3  67 NW17      30.07S WCI  -5
CHICAGO IL     LGT SNOW  14   8  77 NW16G23   29.94S WCI  -2
EAU CLAIRE WI  CLEAR      9  -6  50 NW7       30.07R WCI  -2
LA CROSSE WI   CLEAR      7  -4  60 NW10      30.08R WCI  -8
$$

  *****  SOME NATIONAL WEATHER *****

CITY           SKY/WX    TMP DP  RH WIND       PRES   REMARKS
LA GUARDIA NY  CLOUDY    33  24  69 SE6       29.62S
RALEIGH NC     PTCLDY    32  11  41 W10G18    29.82R WCI  24
ATLANTA GA     MOCLDY    29  17  61 NW15G22   30.00R WCI  18
NEW ORLEANS LA PTCLDY    46  23  40 W5        30.19R
OKLAHOMA CITY  PTCLDY    39  19  44 N6        30.30S
ALBUQUERQUE NM CLEAR     50  18  28 N8        30.37R
SALT LAKE CITY CLEAR     32  27  81 N6        30.49F HAZE
LOS ANGELES CA PTCLDY    69  37  30 W7        30.07S
BOISE ID       CLEAR     34  30  85 CALM      30.45R
SEATTLE WA     MOCLDY    59  42  53 SE9       30.14S
$$

*** WEATHER ACROSS MANITOBA...SASKATCHEWAN AND ONTARIO ***
                ***ONTARIO***

CITY           SKY/WX    TMP DP  RH WIND       PRES   REMARKS
GERALDTON      PTCLDY    -8 -13  77 NW9G17    29.99S WCI -25
THUNDER BAY    FLURRIES   0  -9  65 NW9       30.10S WCI -16
SIOUX LOOKOUT  CLEAR    -11 -17  77 N5        30.15R WCI -23
TORONTO        FLURRIES  30  25  80 SW6       29.48F WCI  24
BIG TROUT LK   PTCLDY   -18 -24  76 N6        30.20F WCI -33
PICKLE LAKE    NOT AVBL
DRYDEN         PTCLDY    -9 -13  84 N7        30.14S WCI -24
KENORA         CLEAR     -6 -11  77 N7        30.17S WCI -20
$$
                *** MANITOBA***

CITY           SKY/WX    TMP DP  RH WIND       PRES   REMARKS
BRANDON        CLOUDY     7   1  78 E9        30.20R WCI  -7
DAUPHIN        CLOUDY     5   0  78 E7        30.20F WCI  -7
ISLAND LAKE    CLEAR    -22 -27  76 CALM      30.28F
PILOT MOUND      N/A      1  -2  85 NE5         N/A  WCI  -8
THE PAS        CLOUDY    -4 -11  71 E7        30.20F WCI -18
THOMPSON       PTCLDY   -26 -33  68 NE2       30.27F
WINNIPEG       PTCLDY    -6 -11  77 NE5       30.28F WCI -17
LYNN LAKE      FLURRIES  -8 -13  77 SE8       30.15F WCI -23
CHURCHILL      CRYSTALS -29 -35  75 NW6       30.35F WCI -46
GILLAM         CLEAR    -24 -29  76 W2        30.31F
$$
                ***SASKATCHEWAN***

CITY           SKY/WX    TMP DP  RH WIND       PRES   REMARKS
ESTEVAN        CLOUDY    25  19  80 E14       30.00F WCI  13
KINDERSLEY     PTCLDY    36  30  80 SW3       29.90F
LLOYDMINSTER   CLOUDY    37  30  75 W13       29.87F
PRINCE ALBERT  FLURRIES  16  12  86 E10       29.96F WCI   3
REGINA         CLOUDY    28  25  86 SE14      29.94F WCI  17
YORKTON        LGT SNOW  12  10  92 SE15      30.05F WCI  -4
N. BATTLEFORD  CLEAR     27  27 100 E8        29.89F FOG     WCI  18
LA RONGE       LGT SNOW   9   5  85 E6        29.99  WCI  -1
SASKATOON      MOCLDY    28  27  93 SE8       29.91F WCI  20
SWIFT CURRENT  PTCLDY    37  30  75 SW12      29.92F
$$
NOTE: THESE ARE AUTOMATED STATIONS WITH LIMITED QUALITY CONTROL
      "FAIR" INDICATES FEW OR NO CLOUDS BELOW 12,000 FEET WITH NO
      SIGNIFICANT WEATHER AND/OR OBSTRUCTIONS TO VISIBILITY.
      SKY/WX - SKY CONDITION AND SIGNIFICANT WEATHER.
      TMP - AIR TEMPERATURE.    DP   - DEWPOINT TEMPERATURE.
      RH  - RELATIVE HUMIDITY.  PRES - PRESSURE.
      HX  - HEAT INDEX.         WCI  - WIND CHILL INDEX.
$




USA.gov is the U.S. government's official web portal to all federal, state and local government web resources and services.